User: anonymous   Login
Location: Newark
(46.9000°N, 28.3500°E)
Time: 10:35:08
(UTC+00:00)
Language:

A-11 Canister half - Orbit

View from above orbital plane
View from above orbital plane
View from above satellite
View from above satellite

Ground track
Ground track

The orbit data is extracted from the following two-line orbital elements,

1    53U 60009E   19233.12476625 -.00000093  00000-0 -91273-4 0  9994
2    53  47.2769 108.2211 0097895 271.6152  87.3425 12.17228816631863
Epoch (UTC): 21 August 2019 02:59:39
Eccentricity: 0.0097895
inclination: 47.2769°
perigee height: 1526 km
apogee height: 1683 km
right ascension of ascending node: 108.2211°
argument of perigee: 271.6152°
revolutions per day: 12.17228816
mean anomaly at epoch: 87.3425°
orbit number at epoch: 63186

The dashed part of the orbit path shows where the satellite is in the earth's shadow,  

DLR